Time,TemperatureF,DewpointF,PressureIn,WindDirection,WindDirectionDegrees,WindSpeedMPH,WindSpeedGustMPH,Humidity,HourlyPrecipIn,Conditions,Clouds,dailyrainin,SoftwareType,DateUTC
2013-08-09 00:14:00,70.0,69.7,29.97,West,270,0.0,-999.0,99,-99.99,,,0.00,Acu-Link.com,2013-08-09 04:14:00,
2013-08-09 00:29:00,69.8,69.5,29.97,SW,225,0.0,-999.0,99,-99.99,,,0.00,Acu-Link.com,2013-08-09 04:29:00,
2013-08-09 00:44:00,69.4,69.1,29.97,SE,135,0.0,-999.0,99,-99.99,,,0.00,Acu-Link.com,2013-08-09 04:44:00,
2013-08-09 00:59:00,69.1,68.8,29.97,SE,135,0.0,-999.0,99,-99.99,,,0.00,Acu-Link.com,2013-08-09 04:59:00,
2013-08-09 01:15:00,68.9,68.6,29.97,SE,135,0.0,-999.0,99,-99.99,,,0.00,Acu-Link.com,2013-08-09 05:15:00,
2013-08-09 01:31:00,68.5,68.2,29.97,SE,135,0.0,-999.0,99,-99.99,,,0.01,Acu-Link.com,2013-08-09 05:31:00,
2013-08-09 01:46:00,68.4,68.1,29.97,East,90,0.0,-999.0,99,-99.99,,,0.01,Acu-Link.com,2013-08-09 05:46:00,
2013-08-09 02:01:00,68.2,67.9,29.97,ESE,112,0.0,-999.0,99,-99.99,,,0.01,Acu-Link.com,2013-08-09 06:01:00,
2013-08-09 02:17:00,68.0,67.7,29.97,ENE,67,0.0,-999.0,99,-99.99,,,0.01,Acu-Link.com,2013-08-09 06:17:00,
2013-08-09 02:32:00,67.8,67.5,29.97,ENE,67,0.0,-999.0,99,-99.99,,,0.01,Acu-Link.com,2013-08-09 06:32:00,
2013-08-09 02:47:00,67.8,67.5,29.97,ENE,67,0.0,-999.0,99,-99.99,,,0.01,Acu-Link.com,2013-08-09 06:47:00,
2013-08-09 03:02:00,68.0,67.7,29.97,ENE,67,0.0,-999.0,99,-99.99,,,0.01,Acu-Link.com,2013-08-09 07:02:00,
2013-08-09 03:18:00,68.0,67.7,29.97,WNW,292,0.0,-999.0,99,-99.99,,,0.01,Acu-Link.com,2013-08-09 07:18:00,
2013-08-09 03:33:00,67.8,67.5,29.97,ESE,112,0.0,-999.0,99,-99.99,,,0.01,Acu-Link.com,2013-08-09 07:33:00,
2013-08-09 03:48:00,67.6,67.3,29.97,South,180,0.0,-999.0,99,-99.99,,,0.01,Acu-Link.com,2013-08-09 07:48:00,
2013-08-09 04:04:00,67.6,67.3,29.98,West,270,0.0,-999.0,99,-99.99,,,0.01,Acu-Link.com,2013-08-09 08:04:00,
2013-08-09 04:19:00,68.0,67.7,29.98,SW,225,0.0,-999.0,99,-99.99,,,0.01,Acu-Link.com,2013-08-09 08:19:00,
2013-08-09 04:34:00,68.0,67.7,29.98,SSW,202,0.0,-999.0,99,-99.99,,,0.01,Acu-Link.com,2013-08-09 08:34:00,
2013-08-09 04:49:00,67.8,67.5,29.98,SE,135,0.0,-999.0,99,-99.99,,,0.01,Acu-Link.com,2013-08-09 08:49:00,
2013-08-09 05:05:00,68.0,67.7,29.98,ESE,112,0.0,-999.0,99,-99.99,,,0.01,Acu-Link.com,2013-08-09 09:05:00,
2013-08-09 05:20:00,68.0,67.7,29.98,East,90,0.0,-999.0,99,-99.99,,,0.01,Acu-Link.com,2013-08-09 09:20:00,
2013-08-09 05:35:00,68.0,67.7,29.98,NE,45,0.0,-999.0,99,-99.99,,,0.01,Acu-Link.com,2013-08-09 09:35:00,
2013-08-09 05:50:00,68.0,67.7,29.99,NE,45,0.0,-999.0,99,-99.99,,,0.01,Acu-Link.com,2013-08-09 09:50:00,
2013-08-09 06:05:00,68.0,67.7,29.99,ESE,112,0.0,-999.0,99,-99.99,,,0.01,Acu-Link.com,2013-08-09 10:05:00,
2013-08-09 06:21:00,68.0,67.7,29.99,WSW,247,0.0,-999.0,99,-99.99,,,0.01,Acu-Link.com,2013-08-09 10:21:00,
2013-08-09 06:36:00,68.2,67.9,29.99,NE,45,0.0,-999.0,99,-99.99,,,0.01,Acu-Link.com,2013-08-09 10:36:00,
2013-08-09 06:51:00,68.2,67.9,30.00,West,270,0.0,-999.0,99,-99.99,,,0.01,Acu-Link.com,2013-08-09 10:51:00,
2013-08-09 07:07:00,68.2,67.9,30.00,SSW,202,0.0,-999.0,99,-99.99,,,0.01,Acu-Link.com,2013-08-09 11:07:00,
2013-08-09 07:22:00,68.4,68.1,30.01,NW,315,0.0,-999.0,99,-99.99,,,0.01,Acu-Link.com,2013-08-09 11:22:00,
2013-08-09 07:37:00,68.7,68.4,30.01,NNE,22,0.0,-999.0,99,-99.99,,,0.01,Acu-Link.com,2013-08-09 11:37:00,
2013-08-09 07:53:00,68.9,68.6,30.01,NE,45,0.0,-999.0,99,-99.99,,,0.01,Acu-Link.com,2013-08-09 11:53:00,
2013-08-09 08:08:00,69.3,69.0,30.01,SE,135,0.0,-999.0,99,-99.99,,,0.01,Acu-Link.com,2013-08-09 12:08:00,
2013-08-09 08:23:00,69.8,69.5,30.01,ESE,112,0.0,-999.0,99,-99.99,,,0.01,Acu-Link.com,2013-08-09 12:23:00,
2013-08-09 08:38:00,71.4,71.1,30.02,WNW,292,0.0,-999.0,99,-99.99,,,0.01,Acu-Link.com,2013-08-09 12:38:00,
2013-08-09 08:54:00,72.3,71.4,30.02,South,180,0.0,-999.0,97,-99.99,,,0.01,Acu-Link.com,2013-08-09 12:54:00,
2013-08-09 09:09:00,72.9,71.7,30.02,South,180,0.0,-999.0,96,-99.99,,,0.01,Acu-Link.com,2013-08-09 13:09:00,
2013-08-09 09:24:00,73.8,72.6,30.02,SSE,157,0.0,-999.0,96,-99.99,,,0.01,Acu-Link.com,2013-08-09 13:24:00,
2013-08-09 09:40:00,74.8,72.6,30.02,SSW,202,0.0,-999.0,93,-99.99,,,0.01,Acu-Link.com,2013-08-09 13:40:00,
2013-08-09 09:55:00,76.1,73.9,30.02,East,90,0.0,-999.0,93,-99.99,,,0.01,Acu-Link.com,2013-08-09 13:55:00,
2013-08-09 10:10:00,76.8,73.3,30.02,WSW,247,0.0,-999.0,89,-99.99,,,0.01,Acu-Link.com,2013-08-09 14:10:00,
2013-08-09 10:26:00,78.4,74.9,30.03,SSE,157,0.0,-999.0,89,-99.99,,,0.01,Acu-Link.com,2013-08-09 14:26:00,
2013-08-09 10:41:00,78.3,74.4,30.02,SSE,157,0.0,-999.0,88,-99.99,,,0.01,Acu-Link.com,2013-08-09 14:41:00,
2013-08-09 10:56:00,79.3,75.1,30.03,SW,225,0.0,-999.0,87,-99.99,,,0.01,Acu-Link.com,2013-08-09 14:56:00,
2013-08-09 11:11:00,77.4,74.6,30.03,East,90,0.0,-999.0,91,-99.99,,,0.01,Acu-Link.com,2013-08-09 15:11:00,
2013-08-09 11:26:00,78.6,74.4,30.03,ESE,112,0.0,-999.0,87,-99.99,,,0.01,Acu-Link.com,2013-08-09 15:26:00,
2013-08-09 11:41:00,78.6,73.7,30.02,West,270,0.0,-999.0,85,-99.99,,,0.01,Acu-Link.com,2013-08-09 15:41:00,
2013-08-09 11:56:00,80.4,74.0,30.02,South,180,0.0,-999.0,81,-99.99,,,0.01,Acu-Link.com,2013-08-09 15:56:00,
2013-08-09 12:12:00,80.4,74.0,30.01,West,270,0.0,-999.0,81,-99.99,,,0.01,Acu-Link.com,2013-08-09 16:12:00,
2013-08-09 12:27:00,80.6,73.5,30.01,South,180,0.0,-999.0,79,-99.99,,,0.01,Acu-Link.com,2013-08-09 16:27:00,
2013-08-09 12:42:00,82.8,73.2,30.01,ESE,112,0.0,-999.0,73,-99.99,,,0.01,Acu-Link.com,2013-08-09 16:42:00,
2013-08-09 12:58:00,84.2,74.6,30.01,South,180,0.0,-999.0,73,-99.99,,,0.01,Acu-Link.com,2013-08-09 16:58:00,
2013-08-09 13:13:00,83.7,73.3,30.01,SW,225,0.0,-999.0,71,-99.99,,,0.01,Acu-Link.com,2013-08-09 17:13:00,
2013-08-09 13:29:00,82.0,74.4,30.00,SSE,157,0.0,-999.0,78,-99.99,,,0.01,Acu-Link.com,2013-08-09 17:29:00,
2013-08-09 13:44:00,80.8,75.9,30.00,WSW,247,0.0,-999.0,85,-99.99,,,0.01,Acu-Link.com,2013-08-09 17:44:00,
2013-08-09 13:59:00,80.4,75.8,30.00,WSW,247,0.0,-999.0,86,-99.99,,,0.01,Acu-Link.com,2013-08-09 17:59:00,
2013-08-09 14:15:00,80.8,76.2,30.01,West,270,0.0,-999.0,86,-99.99,,,0.01,Acu-Link.com,2013-08-09 18:15:00,
2013-08-09 14:45:00,81.1,76.5,30.01,SSE,157,0.0,-999.0,86,-99.99,,,0.01,Acu-Link.com,2013-08-09 18:45:00,
2013-08-09 15:00:00,81.7,74.9,30.00,NNE,22,0.0,-999.0,80,-99.99,,,0.01,Acu-Link.com,2013-08-09 19:00:00,
2013-08-09 15:16:00,81.9,75.8,29.99,WSW,247,0.0,-999.0,82,-99.99,,,0.01,Acu-Link.com,2013-08-09 19:16:00,
2013-08-09 15:31:00,81.0,75.7,29.99,NE,45,0.0,-999.0,84,-99.99,,,0.01,Acu-Link.com,2013-08-09 19:31:00,
2013-08-09 15:46:00,81.9,74.3,29.99,South,180,0.0,-999.0,78,-99.99,,,0.01,Acu-Link.com,2013-08-09 19:46:00,
2013-08-09 16:01:00,82.8,73.6,29.98,West,270,0.0,-999.0,74,-99.99,,,0.01,Acu-Link.com,2013-08-09 20:01:00,
2013-08-09 16:17:00,81.7,73.8,29.97,WSW,247,0.0,-999.0,77,-99.99,,,0.01,Acu-Link.com,2013-08-09 20:17:00,
2013-08-09 16:32:00,81.5,74.7,29.98,South,180,0.0,-999.0,80,-99.99,,,0.01,Acu-Link.com,2013-08-09 20:32:00,
2013-08-09 16:47:00,81.3,74.1,29.98,WNW,292,0.0,-999.0,79,-99.99,,,0.01,Acu-Link.com,2013-08-09 20:47:00,
2013-08-09 17:02:00,81.7,74.2,29.98,South,180,0.0,-999.0,78,-99.99,,,0.01,Acu-Link.com,2013-08-09 21:02:00,
2013-08-09 17:17:00,81.3,74.5,29.98,WSW,247,0.0,-999.0,80,-99.99,,,0.01,Acu-Link.com,2013-08-09 21:17:00,
2013-08-09 17:33:00,81.0,74.2,29.98,West,270,0.0,-999.0,80,-99.99,,,0.01,Acu-Link.com,2013-08-09 21:33:00,
2013-08-09 17:48:00,81.0,74.2,29.97,South,180,0.0,-999.0,80,-99.99,,,0.01,Acu-Link.com,2013-08-09 21:48:00,
2013-08-09 18:03:00,79.9,73.9,29.97,SSE,157,0.0,-999.0,82,-99.99,,,0.01,Acu-Link.com,2013-08-09 22:03:00,
2013-08-09 18:19:00,79.2,73.6,29.96,South,180,0.0,-999.0,83,-99.99,,,0.01,Acu-Link.com,2013-08-09 22:19:00,
2013-08-09 18:34:00,79.0,74.1,29.96,WNW,292,0.0,-999.0,85,-99.99,,,0.01,Acu-Link.com,2013-08-09 22:34:00,
2013-08-09 18:49:00,78.8,73.9,29.97,South,180,0.0,-999.0,85,-99.99,,,0.01,Acu-Link.com,2013-08-09 22:49:00,
2013-08-09 19:05:00,78.8,74.2,29.97,SSW,202,0.0,-999.0,86,-99.99,,,0.01,Acu-Link.com,2013-08-09 23:05:00,
2013-08-09 19:35:00,77.5,73.7,29.98,SE,135,0.0,-999.0,88,-99.99,,,0.01,Acu-Link.com,2013-08-09 23:35:00,
2013-08-09 19:50:00,76.8,73.3,29.98,WSW,247,0.0,-999.0,89,-99.99,,,0.01,Acu-Link.com,2013-08-09 23:50:00,
2013-08-09 20:05:00,76.1,73.3,29.98,West,270,0.0,-999.0,91,-99.99,,,0.01,Acu-Link.com,2013-08-10 00:05:00,
2013-08-09 20:21:00,75.6,72.5,29.99,West,270,0.0,-999.0,90,-99.99,,,0.01,Acu-Link.com,2013-08-10 00:21:00,
2013-08-09 20:36:00,74.8,72.3,29.99,WNW,292,0.0,-999.0,92,-99.99,,,0.01,Acu-Link.com,2013-08-10 00:36:00,
2013-08-09 20:51:00,74.3,71.8,30.00,SE,135,0.0,-999.0,92,-99.99,,,0.01,Acu-Link.com,2013-08-10 00:51:00,
2013-08-09 21:07:00,73.8,71.6,30.01,SE,135,0.0,-999.0,93,-99.99,,,0.01,Acu-Link.com,2013-08-10 01:07:00,
2013-08-09 21:22:00,73.4,72.2,30.01,SW,225,0.0,-999.0,96,-99.99,,,0.01,Acu-Link.com,2013-08-10 01:22:00,
2013-08-09 21:37:00,73.2,72.3,30.02,SSE,157,0.0,-999.0,97,-99.99,,,0.01,Acu-Link.com,2013-08-10 01:37:00,
2013-08-09 21:52:00,73.0,72.4,30.03,WNW,292,0.0,-999.0,98,-99.99,,,0.01,Acu-Link.com,2013-08-10 01:52:00,
2013-08-09 22:08:00,72.7,72.1,30.03,SSE,157,0.0,-999.0,98,-99.99,,,0.01,Acu-Link.com,2013-08-10 02:08:00,
2013-08-09 22:23:00,72.3,71.7,30.04,West,270,0.0,-999.0,98,-99.99,,,0.01,Acu-Link.com,2013-08-10 02:23:00,
2013-08-09 22:38:00,72.0,71.7,30.05,West,270,0.0,-999.0,99,-99.99,,,0.01,Acu-Link.com,2013-08-10 02:38:00,
2013-08-09 22:53:00,72.0,71.7,30.05,West,270,0.0,-999.0,99,-99.99,,,0.01,Acu-Link.com,2013-08-10 02:53:00,
2013-08-09 23:09:00,71.8,71.5,30.04,SW,225,0.0,-999.0,99,-99.99,,,0.01,Acu-Link.com,2013-08-10 03:09:00,
2013-08-09 23:24:00,71.4,71.1,30.04,West,270,0.0,-999.0,99,-99.99,,,0.01,Acu-Link.com,2013-08-10 03:24:00,
2013-08-09 23:39:00,71.2,70.9,30.05,ENE,67,0.0,-999.0,99,-99.99,,,0.01,Acu-Link.com,2013-08-10 03:39:00,
2013-08-09 23:55:00,70.9,70.6,30.04,WSW,247,0.0,-999.0,99,-99.99,,,0.01,Acu-Link.com,2013-08-10 03:55:00,